27.02.2024 02:00:00 115,38
27.02.2024 02:15:00 115,39
27.02.2024 02:30:00 115,39
27.02.2024 02:45:00 115,39
27.02.2024 03:00:00 115,39
27.02.2024 03:15:00 115,38
27.02.2024 03:30:00 115,38
27.02.2024 03:45:00 115,37
27.02.2024 04:00:00 115,37
27.02.2024 04:15:00 115,37
27.02.2024 04:30:00 115,37
27.02.2024 05:00:00 115,38
27.02.2024 05:15:00 115,37
27.02.2024 05:45:00 115,38
27.02.2024 06:00:00 115,38
27.02.2024 06:15:00 115,39
27.02.2024 06:30:00 115,38
27.02.2024 06:45:00 115,38
27.02.2024 07:00:00 115,38
27.02.2024 07:15:00 115,38
27.02.2024 07:30:00 115,38
27.02.2024 07:45:00 115,38
27.02.2024 08:00:00 115,39
27.02.2024 08:15:00 115,39
27.02.2024 08:30:00 115,39
27.02.2024 08:45:00 115,40
27.02.2024 09:00:00 115,39
27.02.2024 09:45:00 115,38
27.02.2024 10:00:00 115,38
27.02.2024 10:15:00 115,38
27.02.2024 10:30:00 115,38
27.02.2024 10:45:00 115,38
27.02.2024 11:00:00 115,38
27.02.2024 11:15:00 115,38
27.02.2024 11:30:00 115,38
27.02.2024 11:45:00 115,39
27.02.2024 12:00:00 115,38
27.02.2024 12:15:00 115,38
27.02.2024 12:30:00 115,38
27.02.2024 12:45:00 115,38
27.02.2024 13:00:00 115,38
27.02.2024 13:15:00 115,38
27.02.2024 13:30:00 115,38
27.02.2024 13:45:00 115,38
27.02.2024 14:00:00 115,38
27.02.2024 14:15:00 115,38
27.02.2024 14:30:00 115,38
27.02.2024 15:15:00 115,38
27.02.2024 15:30:00 115,38
27.02.2024 15:45:00 115,38
27.02.2024 16:00:00 115,38
27.02.2024 16:15:00 115,38
27.02.2024 16:30:00 115,38
27.02.2024 16:45:00 115,38
27.02.2024 17:00:00 115,38
27.02.2024 17:15:00 115,39
27.02.2024 17:45:00 115,39
27.02.2024 18:00:00 115,39
27.02.2024 18:15:00 115,39
27.02.2024 18:30:00 115,38
27.02.2024 18:45:00 115,38
27.02.2024 19:00:00 115,38
27.02.2024 19:15:00 115,38
27.02.2024 19:30:00 115,38
27.02.2024 19:45:00 115,38
27.02.2024 20:00:00 115,39
27.02.2024 20:15:00 115,38
27.02.2024 20:30:00 115,38
27.02.2024 20:45:00 115,38
27.02.2024 21:00:00 115,38
27.02.2024 21:15:00 115,38
27.02.2024 21:45:00 115,38
27.02.2024 22:00:00 115,38
27.02.2024 22:15:00 115,38
27.02.2024 22:30:00 115,38
27.02.2024 22:45:00 115,39
27.02.2024 23:00:00 115,39
27.02.2024 23:30:00 115,39
27.02.2024 23:45:00 115,39
28.02.2024 00:00:00 115,39
28.02.2024 00:15:00 115,38
28.02.2024 00:30:00 115,38
28.02.2024 00:45:00 115,38
28.02.2024 01:00:00 115,38
28.02.2024 01:15:00 115,38
28.02.2024 01:30:00 115,38
28.02.2024 01:45:00 115,39
28.02.2024 02:15:00 115,39
28.02.2024 02:30:00 115,38
28.02.2024 02:45:00 115,39
28.02.2024 03:00:00 115,39
28.02.2024 03:15:00 115,39
28.02.2024 03:30:00 115,38
28.02.2024 03:45:00 115,39
28.02.2024 04:30:00 115,39
28.02.2024 04:45:00 115,39
28.02.2024 05:00:00 115,39
28.02.2024 05:15:00 115,39
28.02.2024 05:30:00 115,38
28.02.2024 05:45:00 115,39
28.02.2024 06:15:00 115,39
28.02.2024 06:30:00 115,39
28.02.2024 06:45:00 115,38
28.02.2024 07:00:00 115,39
28.02.2024 07:15:00 115,38
28.02.2024 07:30:00 115,38
28.02.2024 07:45:00 115,38
28.02.2024 08:00:00 115,39
28.02.2024 08:15:00 115,38
28.02.2024 08:30:00 115,39
28.02.2024 08:45:00 115,39
28.02.2024 09:00:00 115,41
28.02.2024 09:15:00 115,40
28.02.2024 09:30:00 115,40
28.02.2024 09:45:00 115,40
28.02.2024 10:00:00 115,40
28.02.2024 10:15:00 115,40
28.02.2024 10:30:00 115,40
28.02.2024 10:45:00 115,40
28.02.2024 11:00:00 115,40
28.02.2024 11:15:00 115,40
28.02.2024 11:30:00 115,40
28.02.2024 11:45:00 115,40
28.02.2024 12:00:00 115,40
28.02.2024 12:15:00 115,40
28.02.2024 12:30:00 115,40
28.02.2024 12:45:00 115,40
28.02.2024 13:00:00 115,40
28.02.2024 13:15:00 115,40
28.02.2024 13:30:00 115,40
28.02.2024 13:45:00 115,39
28.02.2024 14:00:00 115,39
28.02.2024 14:15:00 115,39
28.02.2024 14:30:00 115,39
28.02.2024 14:45:00 115,39
28.02.2024 15:00:00 115,39
28.02.2024 15:15:00 115,39
28.02.2024 15:30:00 115,39
28.02.2024 15:45:00 115,40
28.02.2024 16:00:00 115,40
28.02.2024 16:15:00 115,41
28.02.2024 16:30:00 115,41
28.02.2024 16:45:00 115,42
28.02.2024 17:00:00 115,42
28.02.2024 17:15:00 115,42
28.02.2024 17:30:00 115,42
28.02.2024 17:45:00 115,41
28.02.2024 18:15:00 115,41
28.02.2024 18:30:00 115,40
28.02.2024 18:45:00 115,40
28.02.2024 19:00:00 115,40
28.02.2024 19:15:00 115,40
28.02.2024 19:30:00 115,40
28.02.2024 19:45:00 115,40
28.02.2024 20:00:00 115,40
28.02.2024 20:15:00 115,40
28.02.2024 20:45:00 115,40
28.02.2024 21:00:00 115,39
28.02.2024 21:15:00 115,39
28.02.2024 21:30:00 115,39
28.02.2024 21:45:00 115,39
28.02.2024 22:00:00 115,39
28.02.2024 22:15:00 115,39
28.02.2024 22:30:00 115,39
28.02.2024 22:45:00 115,39
28.02.2024 23:00:00 115,39
28.02.2024 23:15:00 115,39
28.02.2024 23:30:00 115,39
28.02.2024 23:45:00 115,39
29.02.2024 00:00:00 115,40
29.02.2024 00:15:00 115,40
29.02.2024 00:30:00 115,40
29.02.2024 00:45:00 115,39
29.02.2024 01:00:00 115,39
29.02.2024 01:15:00 115,39
29.02.2024 01:30:00 115,39
29.02.2024 01:45:00 115,39
29.02.2024 02:00:00 115,39
29.02.2024 02:15:00 115,38
29.02.2024 02:30:00 115,38
29.02.2024 02:45:00 115,38
29.02.2024 03:00:00 115,38
29.02.2024 03:15:00 115,38
29.02.2024 03:30:00 115,39
29.02.2024 03:45:00 115,39
29.02.2024 04:00:00 115,39
29.02.2024 04:15:00 115,39
29.02.2024 04:30:00 115,39
29.02.2024 04:45:00 115,39
29.02.2024 05:00:00 115,39
29.02.2024 05:15:00 115,38
29.02.2024 05:30:00 115,38
29.02.2024 05:45:00 115,38
29.02.2024 06:00:00 115,38
29.02.2024 06:15:00 115,38
29.02.2024 06:30:00 115,38
29.02.2024 06:45:00 115,38
29.02.2024 07:00:00 115,39
29.02.2024 07:15:00 115,39
29.02.2024 07:30:00 115,39
29.02.2024 07:45:00 115,39
29.02.2024 08:00:00 115,39
29.02.2024 08:15:00 115,39
29.02.2024 08:30:00 115,38
29.02.2024 09:00:00 115,38
29.02.2024 09:15:00 115,38
29.02.2024 09:30:00 115,38
29.02.2024 09:45:00 115,38
29.02.2024 10:00:00 115,38
29.02.2024 10:15:00 115,38
29.02.2024 10:30:00 115,38
29.02.2024 10:45:00 115,39
29.02.2024 11:00:00 115,39
29.02.2024 11:15:00 115,39
29.02.2024 11:30:00 115,39
29.02.2024 11:45:00 115,39
29.02.2024 12:00:00 115,39
29.02.2024 12:15:00 115,39
29.02.2024 12:30:00 115,39
29.02.2024 12:45:00 115,39
29.02.2024 13:00:00 115,39
29.02.2024 13:15:00 115,39
29.02.2024 13:30:00 115,39
29.02.2024 13:45:00 115,39
29.02.2024 14:00:00 115,39
29.02.2024 14:15:00 115,39
29.02.2024 14:30:00 115,39
29.02.2024 14:45:00 115,39
29.02.2024 15:00:00 115,39
29.02.2024 15:15:00 115,38
29.02.2024 15:30:00 115,38
29.02.2024 15:45:00 115,38
29.02.2024 16:00:00 115,38
29.02.2024 16:15:00 115,38
29.02.2024 16:30:00 115,38
29.02.2024 16:45:00 115,38
29.02.2024 17:00:00 115,38
29.02.2024 17:15:00 115,38
29.02.2024 17:30:00 115,38
29.02.2024 17:45:00 115,38
29.02.2024 18:00:00 115,38
29.02.2024 18:15:00 115,38
29.02.2024 18:45:00 115,39
29.02.2024 19:00:00 115,39
29.02.2024 19:30:00 115,38
29.02.2024 19:45:00 115,38
29.02.2024 20:15:00 115,38
29.02.2024 20:30:00 115,38
29.02.2024 20:45:00 115,38
29.02.2024 21:00:00 115,38
29.02.2024 21:15:00 115,38
29.02.2024 21:30:00 115,38
29.02.2024 21:45:00 115,38
29.02.2024 22:15:00 115,38
29.02.2024 22:30:00 115,38
29.02.2024 22:45:00 115,38
29.02.2024 23:00:00 115,39
29.02.2024 23:15:00 115,39
29.02.2024 23:30:00 115,38
29.02.2024 23:45:00 115,39
01.03.2024 00:00:00 115,39
01.03.2024 00:15:00 115,38
01.03.2024 00:30:00 115,38
01.03.2024 00:45:00 115,38
01.03.2024 01:00:00 115,38
01.03.2024 01:15:00 115,38
01.03.2024 01:30:00 115,38
01.03.2024 01:45:00 115,38
01.03.2024 02:00:00 115,38
01.03.2024 02:15:00 115,39
01.03.2024 02:30:00 115,39
01.03.2024 02:45:00 115,39
01.03.2024 03:00:00 115,39
01.03.2024 03:15:00 115,38
01.03.2024 03:30:00 115,38
01.03.2024 03:45:00 115,38
01.03.2024 04:00:00 115,38
01.03.2024 04:15:00 115,38
01.03.2024 04:30:00 115,38
01.03.2024 04:45:00 115,39
01.03.2024 05:00:00 115,39
01.03.2024 05:15:00 115,39
01.03.2024 05:45:00 115,39
01.03.2024 06:00:00 115,39
01.03.2024 06:15:00 115,39
01.03.2024 06:30:00 115,39
01.03.2024 06:45:00 115,39
01.03.2024 07:00:00 115,38
01.03.2024 07:30:00 115,39
01.03.2024 07:45:00 115,39
01.03.2024 08:00:00 115,39
01.03.2024 08:15:00 115,39
01.03.2024 08:30:00 115,39
01.03.2024 08:45:00 115,39
01.03.2024 09:30:00 115,38
01.03.2024 10:00:00 115,38
01.03.2024 10:15:00 115,38
01.03.2024 10:30:00 115,38
01.03.2024 10:45:00 115,38
01.03.2024 11:00:00 115,38
01.03.2024 11:15:00 115,38
01.03.2024 11:30:00 115,38
01.03.2024 11:45:00 115,39
01.03.2024 12:00:00 115,38
01.03.2024 12:15:00 115,38
01.03.2024 12:30:00 115,38
01.03.2024 12:45:00 115,38
01.03.2024 13:00:00 115,38
01.03.2024 13:15:00 115,38
01.03.2024 13:30:00 115,38
01.03.2024 13:45:00 115,38
01.03.2024 14:00:00 115,39
01.03.2024 14:15:00 115,39
01.03.2024 14:30:00 115,39
01.03.2024 14:45:00 115,39
01.03.2024 15:00:00 115,39
01.03.2024 15:15:00 115,38
01.03.2024 15:30:00 115,38
01.03.2024 15:45:00 115,38
01.03.2024 16:15:00 115,39
01.03.2024 16:30:00 115,38
01.03.2024 16:45:00 115,38
01.03.2024 17:15:00 115,39
01.03.2024 17:30:00 115,38
01.03.2024 17:45:00 115,38
01.03.2024 18:00:00 115,39
01.03.2024 18:15:00 115,39
01.03.2024 18:30:00 115,38
01.03.2024 18:45:00 115,39
01.03.2024 19:00:00 115,39
01.03.2024 19:15:00 115,39
01.03.2024 19:30:00 115,38
01.03.2024 20:00:00 115,39
01.03.2024 20:15:00 115,39
01.03.2024 20:30:00 115,38
01.03.2024 21:00:00 115,38
01.03.2024 21:15:00 115,38
01.03.2024 21:30:00 115,38
01.03.2024 21:45:00 115,38
01.03.2024 22:00:00 115,38
01.03.2024 22:15:00 115,38
01.03.2024 22:30:00 115,38
01.03.2024 22:45:00 115,38
01.03.2024 23:00:00 115,38
01.03.2024 23:15:00 115,38
01.03.2024 23:30:00 115,38
01.03.2024 23:45:00 115,38
02.03.2024 00:00:00 115,38
02.03.2024 00:15:00 115,38
02.03.2024 00:30:00 115,38
02.03.2024 00:45:00 115,38
02.03.2024 01:00:00 115,38
02.03.2024 01:15:00 115,38
02.03.2024 01:30:00 115,38
02.03.2024 01:45:00 115,38
02.03.2024 02:15:00 115,38
02.03.2024 02:30:00 115,38
02.03.2024 02:45:00 115,38
02.03.2024 03:00:00 115,38
02.03.2024 03:30:00 115,38
02.03.2024 03:45:00 115,38
02.03.2024 04:00:00 115,38
02.03.2024 04:15:00 115,39
02.03.2024 04:30:00 115,39
02.03.2024 04:45:00 115,39
02.03.2024 05:00:00 115,39
02.03.2024 05:15:00 115,39
02.03.2024 05:30:00 115,39
02.03.2024 05:45:00 115,39
02.03.2024 06:00:00 115,39
02.03.2024 06:15:00 115,39
02.03.2024 06:30:00 115,39
02.03.2024 06:45:00 115,40
02.03.2024 07:00:00 115,39
02.03.2024 07:15:00 115,39
02.03.2024 07:30:00 115,38
02.03.2024 07:45:00 115,38
02.03.2024 08:00:00 115,37
02.03.2024 08:15:00 115,38
02.03.2024 08:30:00 115,38
02.03.2024 08:45:00 115,39
02.03.2024 09:00:00 115,39
02.03.2024 09:15:00 115,39
02.03.2024 09:30:00 115,39
02.03.2024 09:45:00 115,40
02.03.2024 10:00:00 115,39
02.03.2024 10:15:00 115,39
02.03.2024 10:30:00 115,39
02.03.2024 10:45:00 115,39
02.03.2024 11:00:00 115,39
02.03.2024 11:15:00 115,39
02.03.2024 11:30:00 115,39
02.03.2024 11:45:00 115,39
02.03.2024 12:00:00 115,39
02.03.2024 12:15:00 115,39
02.03.2024 12:30:00 115,39
02.03.2024 12:45:00 115,39
02.03.2024 13:00:00 115,39
02.03.2024 13:15:00 115,38
02.03.2024 13:30:00 115,38
02.03.2024 13:45:00 115,38
02.03.2024 14:00:00 115,38
02.03.2024 14:15:00 115,38
02.03.2024 14:30:00 115,38
02.03.2024 15:00:00 115,38
02.03.2024 15:15:00 115,38
02.03.2024 15:30:00 115,38
02.03.2024 15:45:00 115,38
02.03.2024 16:00:00 115,38
02.03.2024 16:15:00 115,38
02.03.2024 16:30:00 115,38
02.03.2024 16:45:00 115,38
02.03.2024 17:00:00 115,38
02.03.2024 17:15:00 115,38
02.03.2024 17:30:00 115,38
02.03.2024 17:45:00 115,38
02.03.2024 18:00:00 115,39
02.03.2024 18:15:00 115,39
02.03.2024 18:30:00 115,39
02.03.2024 18:45:00 115,39
02.03.2024 19:00:00 115,39
02.03.2024 19:15:00 115,39
02.03.2024 19:30:00 115,39
02.03.2024 19:45:00 115,39
02.03.2024 20:00:00 115,39
02.03.2024 20:15:00 115,38
02.03.2024 20:30:00 115,38
02.03.2024 20:45:00 115,38
02.03.2024 21:00:00 115,38
02.03.2024 21:15:00 115,38
02.03.2024 21:30:00 115,38
02.03.2024 21:45:00 115,38
02.03.2024 22:00:00 115,38
02.03.2024 22:15:00 115,38
02.03.2024 22:30:00 115,38
02.03.2024 23:15:00 115,38
02.03.2024 23:30:00 115,37
02.03.2024 23:45:00 115,38
03.03.2024 00:00:00 115,38
03.03.2024 00:15:00 115,38
03.03.2024 00:30:00 115,38
03.03.2024 00:45:00 115,38
03.03.2024 01:00:00 115,38
03.03.2024 01:15:00 115,38
03.03.2024 01:30:00 115,38
03.03.2024 01:45:00 115,38
03.03.2024 02:00:00 115,38
03.03.2024 02:15:00 115,38
03.03.2024 02:30:00 115,38
03.03.2024 02:45:00 115,37
03.03.2024 03:00:00 115,37
03.03.2024 03:15:00 115,37
03.03.2024 03:30:00 115,37
03.03.2024 03:45:00 115,36
03.03.2024 04:00:00 115,36
03.03.2024 04:15:00 115,36
03.03.2024 04:30:00 115,36
03.03.2024 04:45:00 115,37
03.03.2024 05:00:00 115,37
03.03.2024 05:15:00 115,37
03.03.2024 05:30:00 115,37
03.03.2024 05:45:00 115,37
03.03.2024 06:00:00 115,37
03.03.2024 06:15:00 115,36
03.03.2024 06:30:00 115,36
03.03.2024 06:45:00 115,35
03.03.2024 07:00:00 115,35
03.03.2024 07:15:00 115,35
03.03.2024 07:30:00 115,36
03.03.2024 07:45:00 115,35
03.03.2024 08:00:00 115,37
03.03.2024 08:15:00 115,36
03.03.2024 08:30:00 115,36
03.03.2024 08:45:00 115,35
03.03.2024 09:00:00 115,35
03.03.2024 09:15:00 115,34
03.03.2024 09:30:00 115,33
03.03.2024 09:45:00 115,31
03.03.2024 10:00:00 115,31
03.03.2024 10:15:00 115,31
03.03.2024 10:30:00 115,30
03.03.2024 10:45:00 115,30
03.03.2024 11:00:00 115,30
03.03.2024 11:15:00 115,30
03.03.2024 11:30:00 115,30
03.03.2024 11:45:00 115,32
03.03.2024 12:00:00 115,33
03.03.2024 12:15:00 115,34
03.03.2024 12:30:00 115,34
03.03.2024 12:45:00 115,35
03.03.2024 13:00:00 115,35
03.03.2024 13:15:00 115,35
03.03.2024 13:30:00 115,34
03.03.2024 13:45:00 115,34
03.03.2024 14:00:00 115,33
03.03.2024 14:15:00 115,34
03.03.2024 14:30:00 115,32
03.03.2024 14:45:00 115,34
03.03.2024 15:00:00 115,33
03.03.2024 15:15:00 115,34
03.03.2024 15:30:00 115,32
03.03.2024 15:45:00 115,32
03.03.2024 16:00:00 115,33
03.03.2024 16:15:00 115,33
03.03.2024 16:30:00 115,32
03.03.2024 16:45:00 115,32
03.03.2024 17:00:00 115,31
03.03.2024 17:15:00 115,31
03.03.2024 17:30:00 115,32
03.03.2024 17:45:00 115,33
03.03.2024 18:15:00 115,37
03.03.2024 18:30:00 115,37
03.03.2024 18:45:00 115,38
03.03.2024 19:00:00 115,37
03.03.2024 19:15:00 115,37
03.03.2024 19:30:00 115,37
03.03.2024 19:45:00 115,36
03.03.2024 20:00:00 115,35
03.03.2024 20:15:00 115,36
03.03.2024 20:30:00 115,36
03.03.2024 20:45:00 115,37
03.03.2024 21:00:00 115,37
03.03.2024 21:15:00 115,38
03.03.2024 21:30:00 115,37
03.03.2024 21:45:00 115,37
03.03.2024 22:00:00 115,37
03.03.2024 22:15:00 115,37
03.03.2024 22:30:00 115,37
03.03.2024 22:45:00 115,36
03.03.2024 23:00:00 115,35
03.03.2024 23:15:00 115,36
03.03.2024 23:30:00 115,36
03.03.2024 23:45:00 115,36
04.03.2024 00:00:00 115,36
04.03.2024 00:15:00 115,36
04.03.2024 00:30:00 115,36
04.03.2024 00:45:00 115,36
04.03.2024 01:00:00 115,36
04.03.2024 01:30:00 115,36
04.03.2024 01:45:00 115,37
04.03.2024 02:00:00 115,36
04.03.2024 02:15:00 115,36
04.03.2024 02:30:00 115,36
04.03.2024 02:45:00 115,36
04.03.2024 03:00:00 115,35
04.03.2024 03:15:00 115,36
04.03.2024 03:30:00 115,35
04.03.2024 03:45:00 115,36
04.03.2024 04:00:00 115,36
04.03.2024 04:15:00 115,36
04.03.2024 04:30:00 115,37
04.03.2024 04:45:00 115,36
04.03.2024 05:00:00 115,36
04.03.2024 05:15:00 115,36
04.03.2024 05:30:00 115,36
04.03.2024 05:45:00 115,35
04.03.2024 06:00:00 115,35
04.03.2024 06:15:00 115,35
04.03.2024 06:30:00 115,36
04.03.2024 06:45:00 115,36
04.03.2024 07:00:00 115,37
04.03.2024 07:15:00 115,38
04.03.2024 07:30:00 115,39
04.03.2024 07:45:00 115,39
04.03.2024 08:00:00 115,39
04.03.2024 08:15:00 115,39
04.03.2024 08:45:00 115,39
04.03.2024 09:00:00 115,39
04.03.2024 09:15:00 115,39
04.03.2024 09:30:00 115,38
04.03.2024 09:45:00 115,38
04.03.2024 10:00:00 115,38
04.03.2024 10:15:00 115,38
04.03.2024 10:30:00 115,38
04.03.2024 10:45:00 115,39
04.03.2024 11:00:00 115,39
04.03.2024 11:15:00 115,39
04.03.2024 11:30:00 115,39
04.03.2024 11:45:00 115,40
04.03.2024 12:00:00 115,39
04.03.2024 12:15:00 115,39
04.03.2024 12:30:00 115,39
04.03.2024 12:45:00 115,39
04.03.2024 13:00:00 115,39
04.03.2024 13:15:00 115,39
04.03.2024 13:30:00 115,39
04.03.2024 13:45:00 115,39
04.03.2024 14:00:00 115,39
04.03.2024 14:15:00 115,39
04.03.2024 14:30:00 115,39
04.03.2024 14:45:00 115,39
04.03.2024 15:00:00 115,39
04.03.2024 15:15:00 115,39
04.03.2024 15:30:00 115,39
04.03.2024 15:45:00 115,39
04.03.2024 16:00:00 115,39
04.03.2024 16:15:00 115,39
04.03.2024 16:45:00 115,39
04.03.2024 17:00:00 115,39
04.03.2024 17:15:00 115,39
04.03.2024 17:30:00 115,39
04.03.2024 17:45:00 115,39
04.03.2024 18:00:00 115,38
04.03.2024 18:15:00 115,38
04.03.2024 18:30:00 115,38
04.03.2024 18:45:00 115,38
04.03.2024 19:00:00 115,38
04.03.2024 19:30:00 115,38
04.03.2024 20:00:00 115,39
04.03.2024 20:15:00 115,39
04.03.2024 20:30:00 115,39
04.03.2024 20:45:00 115,40
04.03.2024 21:00:00 115,39
04.03.2024 21:15:00 115,39
04.03.2024 21:30:00 115,40
04.03.2024 21:45:00 115,40
04.03.2024 22:00:00 115,40
04.03.2024 22:15:00 115,40
04.03.2024 22:30:00 115,39
04.03.2024 22:45:00 115,39
04.03.2024 23:00:00 115,39
04.03.2024 23:15:00 115,39
04.03.2024 23:30:00 115,39
04.03.2024 23:45:00 115,39
05.03.2024 00:00:00 115,39
05.03.2024 00:15:00 115,40
05.03.2024 00:30:00 115,40
05.03.2024 00:45:00 115,40
05.03.2024 01:15:00 115,40
05.03.2024 01:30:00 115,40
05.03.2024 01:45:00 115,40
05.03.2024 02:00:00 115,40
05.03.2024 02:15:00 115,40
05.03.2024 02:30:00 115,40
05.03.2024 02:45:00 115,40
05.03.2024 03:15:00 115,39
05.03.2024 03:30:00 115,40
05.03.2024 03:45:00 115,40
05.03.2024 04:00:00 115,40
05.03.2024 04:15:00 115,39
05.03.2024 04:30:00 115,40
05.03.2024 04:45:00 115,40
05.03.2024 05:00:00 115,39
05.03.2024 05:15:00 115,39
05.03.2024 05:30:00 115,40
05.03.2024 05:45:00 115,40
05.03.2024 06:00:00 115,39
05.03.2024 06:15:00 115,39
05.03.2024 06:30:00 115,39
05.03.2024 06:45:00 115,40
05.03.2024 07:00:00 115,39
05.03.2024 07:15:00 115,40
05.03.2024 07:30:00 115,40
05.03.2024 07:45:00 115,40
05.03.2024 08:00:00 115,39
05.03.2024 08:15:00 115,39
05.03.2024 08:30:00 115,39
05.03.2024 08:45:00 115,39
05.03.2024 09:00:00 115,40
05.03.2024 09:15:00 115,39
05.03.2024 09:30:00 115,40
05.03.2024 09:45:00 115,40
05.03.2024 10:00:00 115,41
05.03.2024 10:15:00 115,41
05.03.2024 10:30:00 115,42
05.03.2024 10:45:00 115,41
05.03.2024 11:00:00 115,43
05.03.2024 11:15:00 115,42
05.03.2024 11:30:00 115,43
05.03.2024 11:45:00 115,42
05.03.2024 12:00:00 115,41
05.03.2024 12:15:00 115,42
05.03.2024 12:30:00 115,40
05.03.2024 12:45:00 115,42
05.03.2024 13:00:00 115,41
05.03.2024 13:15:00 115,42
05.03.2024 13:30:00 115,42
05.03.2024 13:45:00 115,42
05.03.2024 14:00:00 115,43
05.03.2024 14:15:00 115,42
05.03.2024 14:30:00 115,43
05.03.2024 14:45:00 115,41
05.03.2024 15:00:00 115,43
05.03.2024 15:15:00 115,41
05.03.2024 15:30:00 115,42
05.03.2024 15:45:00 115,41
05.03.2024 16:00:00 115,41
05.03.2024 16:15:00 115,40
05.03.2024 16:30:00 115,40
05.03.2024 16:45:00 115,40
05.03.2024 17:00:00 115,41
05.03.2024 17:15:00 115,40
05.03.2024 17:30:00 115,40
05.03.2024 17:45:00 115,40
05.03.2024 18:15:00 115,40
05.03.2024 18:30:00 115,39
05.03.2024 18:45:00 115,40
05.03.2024 19:00:00 115,40
05.03.2024 19:15:00 115,40
05.03.2024 19:30:00 115,40
05.03.2024 19:45:00 115,40
05.03.2024 20:00:00 115,41
05.03.2024 20:15:00 115,40
05.03.2024 20:30:00 115,40
05.03.2024 21:00:00 115,40
05.03.2024 21:15:00 115,39
05.03.2024 21:30:00 115,39
05.03.2024 21:45:00 115,38
05.03.2024 22:15:00 115,39
05.03.2024 22:30:00 115,39
05.03.2024 22:45:00 115,39
05.03.2024 23:00:00 115,39
05.03.2024 23:15:00 115,39
05.03.2024 23:30:00 115,39
05.03.2024 23:45:00 115,39
06.03.2024 00:00:00 115,39
06.03.2024 00:15:00 115,39
06.03.2024 00:30:00 115,39
06.03.2024 00:45:00 115,39
06.03.2024 01:00:00 115,40
06.03.2024 01:15:00 115,40
06.03.2024 01:30:00 115,40
06.03.2024 01:45:00 115,40
06.03.2024 02:00:00 115,40
06.03.2024 02:15:00 115,40
06.03.2024 02:30:00 115,40
06.03.2024 02:45:00 115,39
06.03.2024 03:00:00 115,39
06.03.2024 03:15:00 115,39
06.03.2024 03:30:00 115,39
06.03.2024 03:45:00 115,39
06.03.2024 04:00:00 115,39
06.03.2024 04:15:00 115,39
06.03.2024 04:30:00 115,40
06.03.2024 04:45:00 115,40
06.03.2024 05:15:00 115,42
06.03.2024 05:30:00 115,41
06.03.2024 05:45:00 115,41
06.03.2024 06:00:00 115,41
06.03.2024 06:15:00 115,40
06.03.2024 06:30:00 115,40
06.03.2024 06:45:00 115,40
06.03.2024 07:00:00 115,39
06.03.2024 07:15:00 115,40
06.03.2024 07:30:00 115,40
06.03.2024 07:45:00 115,40
06.03.2024 08:00:00 115,40
06.03.2024 08:15:00 115,41
06.03.2024 08:30:00 115,41
06.03.2024 08:45:00 115,41
06.03.2024 09:00:00 115,41
06.03.2024 09:15:00 115,41
06.03.2024 09:30:00 115,41
06.03.2024 10:00:00 115,41
06.03.2024 10:15:00 115,42
06.03.2024 10:30:00 115,42
06.03.2024 10:45:00 115,42
06.03.2024 11:15:00 115,42
06.03.2024 11:30:00 115,41
06.03.2024 11:45:00 115,40
06.03.2024 12:00:00 115,40
06.03.2024 12:15:00 115,41
06.03.2024 12:30:00 115,40
06.03.2024 12:45:00 115,41
06.03.2024 13:15:00 115,43
06.03.2024 13:30:00 115,43
06.03.2024 13:45:00 115,43
06.03.2024 14:00:00 115,43
06.03.2024 14:15:00 115,44
06.03.2024 14:30:00 115,43
06.03.2024 14:45:00 115,43
06.03.2024 15:00:00 115,43
06.03.2024 15:15:00 115,44
06.03.2024 15:30:00 115,44
06.03.2024 15:45:00 115,45
06.03.2024 16:00:00 115,45
06.03.2024 16:15:00 115,45
06.03.2024 16:30:00 115,47
06.03.2024 16:45:00 115,45
06.03.2024 17:00:00 115,46
06.03.2024 17:15:00 115,45
06.03.2024 17:30:00 115,43
06.03.2024 17:45:00 115,42
06.03.2024 18:00:00 115,41
06.03.2024 18:15:00 115,40
06.03.2024 18:45:00 115,39
06.03.2024 19:00:00 115,39
06.03.2024 19:15:00 115,39
06.03.2024 19:30:00 115,40
06.03.2024 20:00:00 115,40
06.03.2024 20:15:00 115,41
06.03.2024 20:30:00 115,43
06.03.2024 21:00:00 115,45
06.03.2024 21:15:00 115,45
06.03.2024 21:30:00 115,44
06.03.2024 21:45:00 115,43
06.03.2024 22:00:00 115,43
06.03.2024 22:15:00 115,42
06.03.2024 22:30:00 115,41
06.03.2024 22:45:00 115,41
06.03.2024 23:00:00 115,42
06.03.2024 23:15:00 115,43
06.03.2024 23:30:00 115,43
06.03.2024 23:45:00 115,44
07.03.2024 00:00:00 115,44
07.03.2024 00:15:00 115,46
07.03.2024 00:45:00 115,45
07.03.2024 01:00:00 115,44
07.03.2024 01:15:00 115,45
07.03.2024 01:30:00 115,44
07.03.2024 01:45:00 115,44
07.03.2024 02:15:00 115,43
07.03.2024 02:45:00 115,43
07.03.2024 03:00:00 115,42
07.03.2024 03:15:00 115,42
07.03.2024 03:30:00 115,42
07.03.2024 03:45:00 115,42
07.03.2024 04:00:00 115,42
07.03.2024 04:15:00 115,42
07.03.2024 04:30:00 115,42
07.03.2024 04:45:00 115,42
07.03.2024 05:00:00 115,43
07.03.2024 05:15:00 115,43
07.03.2024 05:30:00 115,43
07.03.2024 05:45:00 115,44
07.03.2024 06:00:00 115,44
07.03.2024 06:15:00 115,45
07.03.2024 06:30:00 115,45
07.03.2024 06:45:00 115,45
07.03.2024 07:00:00 115,45
07.03.2024 07:15:00 115,44
07.03.2024 07:30:00 115,43
07.03.2024 07:45:00 115,42
07.03.2024 08:00:00 115,42
07.03.2024 08:15:00 115,42
07.03.2024 08:30:00 115,42
07.03.2024 08:45:00 115,43
07.03.2024 09:00:00 115,44
07.03.2024 09:15:00 115,45
07.03.2024 09:30:00 115,45
07.03.2024 09:45:00 115,45
07.03.2024 10:00:00 115,44
07.03.2024 10:15:00 115,44
07.03.2024 10:30:00 115,43
07.03.2024 10:45:00 115,43
07.03.2024 11:00:00 115,42
07.03.2024 11:15:00 115,42
07.03.2024 11:45:00 115,42
07.03.2024 12:00:00 115,41
07.03.2024 12:15:00 115,41
07.03.2024 12:30:00 115,41
07.03.2024 12:45:00 115,41
07.03.2024 13:00:00 115,41
07.03.2024 13:15:00 115,40
07.03.2024 13:30:00 115,41
07.03.2024 13:45:00 115,41
07.03.2024 14:00:00 115,42
07.03.2024 14:15:00 115,40
07.03.2024 14:30:00 115,40
07.03.2024 15:00:00 115,38
07.03.2024 15:15:00 115,37
07.03.2024 15:30:00 115,38
07.03.2024 15:45:00 115,38
07.03.2024 16:00:00 115,37
07.03.2024 16:15:00 115,38
07.03.2024 16:30:00 115,38
07.03.2024 16:45:00 115,38
07.03.2024 17:00:00 115,38
07.03.2024 17:15:00 115,38
07.03.2024 17:30:00 115,38
07.03.2024 17:45:00 115,38
07.03.2024 18:00:00 115,39
07.03.2024 18:15:00 115,39
07.03.2024 18:30:00 115,40
07.03.2024 18:45:00 115,39
07.03.2024 19:00:00 115,39
07.03.2024 19:15:00 115,39
07.03.2024 19:30:00 115,40
07.03.2024 19:45:00 115,40
07.03.2024 20:00:00 115,40
07.03.2024 20:15:00 115,39
07.03.2024 20:30:00 115,39
07.03.2024 20:45:00 115,39
07.03.2024 21:00:00 115,39
07.03.2024 21:15:00 115,39
07.03.2024 21:30:00 115,39
07.03.2024 21:45:00 115,40
07.03.2024 22:30:00 115,40